TimeCDT,TemperatureF,Dew PointF,Humidity,Sea Level PressureIn,VisibilityMPH,Wind Direction,Wind SpeedMPH,Gust SpeedMPH,PrecipitationIn,Events,Conditions,WindDirDegrees,DateUTC
12:53 AM,19.9,14.0,78,30.32,10.0,Calm,Calm,-,N/A,,Clear,0,2012-10-07 05:53:00
1:53 AM,19.0,14.0,81,30.31,10.0,West,4.6,-,N/A,,Clear,270,2012-10-07 06:53:00
2:53 AM,16.0,12.0,84,30.31,10.0,WSW,4.6,-,N/A,,Clear,250,2012-10-07 07:53:00
3:53 AM,17.1,12.9,84,30.29,10.0,Calm,Calm,-,N/A,,Clear,0,2012-10-07 08:53:00
4:53 AM,15.1,10.9,84,30.28,10.0,Calm,Calm,-,N/A,,Clear,0,2012-10-07 09:53:00
5:53 AM,16.0,12.0,84,30.27,10.0,Calm,Calm,-,N/A,,Clear,0,2012-10-07 10:53:00
6:53 AM,16.0,10.0,77,30.27,10.0,Calm,Calm,-,N/A,,Clear,0,2012-10-07 11:53:00
7:53 AM,17.1,12.9,84,30.27,10.0,Calm,Calm,-,N/A,,Clear,0,2012-10-07 12:53:00
8:53 AM,28.9,21.0,72,30.26,10.0,SW,3.5,-,N/A,,Clear,220,2012-10-07 13:53:00
9:53 AM,39.9,23.0,51,30.24,10.0,SW,13.8,-,N/A,,Clear,230,2012-10-07 14:53:00
10:53 AM,45.0,19.9,37,30.22,10.0,SW,15.0,-,N/A,,Clear,220,2012-10-07 15:53:00
11:53 AM,48.9,21.0,33,30.19,10.0,SW,16.1,24.2,N/A,,Clear,220,2012-10-07 16:53:00
12:53 PM,52.0,21.0,30,30.15,10.0,WSW,17.3,24.2,N/A,,Clear,240,2012-10-07 17:53:00
1:53 PM,54.0,19.9,26,30.11,10.0,WSW,12.7,24.2,N/A,,Clear,240,2012-10-07 18:53:00
2:53 PM,55.0,19.9,25,30.08,10.0,SW,13.8,20.7,N/A,,Clear,230,2012-10-07 19:53:00
3:53 PM,55.9,21.0,26,30.05,10.0,SSW,16.1,-,N/A,,Clear,210,2012-10-07 20:53:00
4:53 PM,57.0,21.0,25,30.03,10.0,SW,17.3,23.0,N/A,,Clear,220,2012-10-07 21:53:00
5:53 PM,55.0,19.0,24,30.01,10.0,SW,16.1,20.7,N/A,,Clear,230,2012-10-07 22:53:00
6:53 PM,48.0,19.0,32,30.01,10.0,SSW,8.1,-,N/A,,Clear,210,2012-10-07 23:53:00
7:53 PM,42.1,19.0,40,30.01,10.0,South,8.1,-,N/A,,Clear,180,2012-10-08 00:53:00
8:53 PM,43.0,19.9,40,29.99,10.0,South,10.4,-,N/A,,Clear,190,2012-10-08 01:53:00
9:53 PM,43.0,21.9,43,29.97,10.0,South,11.5,-,N/A,,Clear,190,2012-10-08 02:53:00
10:53 PM,44.1,23.0,43,29.96,10.0,SSW,16.1,-,N/A,,Clear,200,2012-10-08 03:53:00
11:53 PM,43.0,24.1,47,29.94,10.0,SSW,15.0,-,N/A,,Clear,200,2012-10-08 04:53:00